Weather Roundup
Issued by NWS Chicago, IL

Home | Current Version | Previous Version | Text Only | Print | Product List | Glossary On
Versions: 1 2 3 4 5 6 7 8 9 10 11 12 13 14 15 16 17 18 19 20 21 22 23 24 25 26 27 28 29 30 31 32 33 34 35 36 37 38 39 40 41 42 43 44 45 46 47 48 49 50
000
NZUS59 KLOT 202308
HRRLOT

CHICAGO AREA WEATHER ROUNDUP
NATIONAL WEATHER SERVICE CHICAGO/ROMEOVILLE IL
500 PM CST FRI JAN 20 2017

NOTE: "FAIR" INDICATES FEW OR NO CLOUDS BELOW 12,000 FEET WITH NO
SIGNIFICANT WEATHER AND/OR OBSTRUCTIONS TO VISIBILITY.

* THESE STATIONS ARE NOT UNDER NWS QUALITY CONTROL. THEY ALSO MAY NOT
  REPORT WEATHER SUCH AS PRECIPITATION OR FOG.

ILZ005-006-012>014-019>023-210000-
NORTHEAST ILLINOIS

CITY           SKY/WX    TMP DP  RH WIND       PRES   REMARKS
OHARE          CLOUDY    41  40  96 SE6       29.65R FOG
MIDWAY         CLOUDY    41  39  93 E6        29.66R FOG
AURORA         CLOUDY    41  40  96 E3        29.64S FOG
LANSING*       CLOUDY    43  43 100 CALM      29.66S
JOLIET*        CLOUDY    45  44  97 SE5       29.64S FOG
WAUKEGAN       FOG       37  37 100 CALM      29.65R VSB 1/16
DUPAGE AIRPORT FOG       41  39  93 E3        29.64S VSB 1/2
WHEELING       FOG       39  38  96 CALM      29.67R VSB 3/4
KANKAKEE*      CLOUDY    47  47  97 CALM      29.66R
MORRIS*        CLOUDY    42  41  96 CALM      29.63S FOG
LEWIS AIRPORT* CLOUDY    42  42 100 CALM      29.64S
NORTHERLY ISL    N/A     36  35  96 CALM        N/A
$$

WIZ051-052-058>065-066-070>072-210000-
SOUTHEAST WISCONSIN

CITY           SKY/WX    TMP DP  RH WIND       PRES   REMARKS
MILWAUKEE      FOG       38  36  92 SE7       29.66R VSB 1/4
KENOSHA*       FOG       37  37 100 SE3       29.66R VSB 1/4
RACINE*        FOG       37  36  96 SE3       29.67R VSB 1/4
WAUKESHA       FOG       36  36 100 SE7       29.66R VSB 0
WEST BEND      CLOUDY    36  36 100 SE3       29.65R FOG
$$

INZ001>003-010>013-019-020-210000-
NORTHWEST INDIANA

CITY           SKY/WX    TMP DP  RH WIND       PRES   REMARKS
GARY*          CLOUDY    45  43  93 CALM      29.67R FOG
MICHIGAN CITY* NOT AVBL
RENSSELAER*    NOT AVBL
VALPARAISO     CLOUDY    46  46 100 S6        29.67R FOG
$$

LMZ740>746-210000-
SOUTHERN LAKE MICHIGAN

STATION/POSITION TIME  SKY/WX   TEMP WIND        PRES    VSBY
                                AIR  DIR/SP/G
                 (UTC)          (F)  (DEG/KT/KT) (MB)    (MI)
HARRISON CRIB    2240            37  170/  3/  4   N/A
BURNHAM HARBOR   2300            35   CALM  /  2   N/A
CALUMET HARBOR   2230            37   70/  2/  2 1004.1R
BURNS HARBOR     2240            37   70/  3/  4 1005.4R
MICHIGAN CITY    2240            38   60/  2/  3   N/A
$$

ABBREVIATIONS USED IN REMARKS
   TC - TEMPERATURE IN CELSIUS
  WCI - WIND CHILL INDEX
   HX - HEAT INDEX
  VSB - VISIBILITY
$$



USA.gov is the U.S. government's official web portal to all federal, state and local government web resources and services.